• In Deutschland
  • Länderverzeichnis
  • Für 7 Tage
  • Wassertemperatur
  • Satellitenkarten
  • Wetterkarte
  • Widgets
  • user-avatar
    Anmelden

    Stündliche Wetter Bad Kohlgrub

    Heute, 22 Januar, Montag

    Zeit Temperatur Niederschläge Wind Luftdruck Luftfeuchtigkeit
    00:00 -3°C° 0,5 mm 1 m/S 682 mmHg 94%
    01:00 -3°C° 0 mm 2 m/S 681 mmHg 94%
    02:00 -3°C° 2,1 mm 2 m/S 681 mmHg 95%
    03:00 -2°C° 2,1 mm 2 m/S 681 mmHg 96%
    04:00 -2°C° 2,1 mm 2 m/S 680 mmHg 97%
    05:00 -1°C° 2,5 mm 2 m/S 680 mmHg 97%
    06:00 -1°C° 2,5 mm 2 m/S 680 mmHg 97%
    07:00 +1°C° 2,5 mm 2 m/S 680 mmHg 97%
    08:00 +2°C° 1,5 mm 2 m/S 679 mmHg 98%
    09:00 +1°C° 1,5 mm 3 m/S 679 mmHg 98%
    10:00 +2°C° 1,5 mm 3 m/S 679 mmHg 98%
    11:00 +2°C° 1,6 mm 3 m/S 679 mmHg 98%
    12:00 +2°C° 1,6 mm 3 m/S 679 mmHg 99%
    13:00 +2°C° 1,6 mm 3 m/S 678 mmHg 99%
    14:00 +3°C° 2,5 mm 2 m/S 678 mmHg 99%
    15:00 +3°C° 2,5 mm 2 m/S 678 mmHg 99%
    16:00 +4°C° 2,5 mm 1 m/S 678 mmHg 99%
    17:00 +4°C° 2,8 mm 1 m/S 679 mmHg 99%
    18:00 +3°C° 2,8 mm 2 m/S 679 mmHg 99%
    19:00 +3°C° 2,8 mm 2 m/S 680 mmHg 99%
    20:00 +3°C° 0,8 mm 2 m/S 681 mmHg 99%
    21:00 +3°C° 0,8 mm 2 m/S 682 mmHg 99%
    22:00 +2°C° 0,8 mm 3 m/S 683 mmHg 99%
    23:00 +1°C° 0,2 mm 3 m/S 683 mmHg 98%

    Morgen, 23 Januar, Dienstag

    Zeit Temperatur Niederschläge Wind Luftdruck Luftfeuchtigkeit
    00:00 +1°C° 0,2 mm 3 m/S 684 mmHg 98%
    01:00 +1°C° 0,2 mm 3 m/S 685 mmHg 98%
    02:00 0°C° 0,1 mm 3 m/S 685 mmHg 97%
    03:00 0°C° 0,1 mm 3 m/S 686 mmHg 97%
    04:00 0°C° 0,1 mm 3 m/S 686 mmHg 97%
    05:00 +1°C° 0,1 mm 2 m/S 687 mmHg 97%
    06:00 -1°C° 0,1 mm 2 m/S 687 mmHg 96%
    07:00 -1°C° 0,1 mm 2 m/S 687 mmHg 96%
    08:00 +1°C° 0 mm 2 m/S 688 mmHg 96%
    09:00 +1°C° 0 mm 2 m/S 688 mmHg 96%
    10:00 +2°C° 0 mm 1 m/S 689 mmHg 96%
    11:00 +3°C° 0 mm 1 m/S 689 mmHg 96%
    12:00 +4°C° 0 mm 1 m/S 689 mmHg 95%
    13:00 +4°C° 0 mm 1 m/S 689 mmHg 95%
    14:00 +4°C° 0 mm 1 m/S 689 mmHg 95%
    15:00 +4°C° 0 mm 1 m/S 689 mmHg 95%
    16:00 +4°C° 0 mm 1 m/S 689 mmHg 95%
    17:00 +3°C° 0 mm 1 m/S 689 mmHg 92%
    18:00 +1°C° 0 mm 1 m/S 689 mmHg 88%
    19:00 -2°C° 0 mm 2 m/S 690 mmHg 85%
    20:00 -2°C° 0 mm 2 m/S 690 mmHg 82%
    21:00 -2°C° 0 mm 2 m/S 690 mmHg 78%
    22:00 -2°C° 0 mm 2 m/S 690 mmHg 75%
    23:00 -1°C° 0,1 mm 2 m/S 690 mmHg 75%

    übermorgen, 24 Januar, Mittwoch

    Zeit Temperatur Niederschläge Wind Luftdruck Luftfeuchtigkeit
    00:00 +1°C° 0,1 mm 2 m/S 690 mmHg 75%
    01:00 +1°C° 0,1 mm 2 m/S 691 mmHg 76%
    02:00 +1°C° 0 mm 2 m/S 690 mmHg 75%
    03:00 +2°C° 0 mm 2 m/S 690 mmHg 74%
    04:00 +2°C° 0 mm 2 m/S 690 mmHg 73%
    05:00 +1°C° 0 mm 2 m/S 690 mmHg 73%
    06:00 +1°C° 0 mm 2 m/S 690 mmHg 72%
    07:00 -1°C° 0 mm 2 m/S 690 mmHg 71%
    08:00 +1°C° 0 mm 2 m/S 690 mmHg 74%
    09:00 +2°C° 0 mm 2 m/S 690 mmHg 76%
    10:00 +3°C° 0 mm 2 m/S 690 mmHg 79%
    11:00 +4°C° 0 mm 2 m/S 690 mmHg 82%
    12:00 +6°C° 0 mm 1 m/S 690 mmHg 86%
    13:00 +7°C° 0 mm 1 m/S 689 mmHg 89%
    14:00 +7°C° 0 mm 1 m/S 689 mmHg 89%
    15:00 +6°C° 0 mm 1 m/S 689 mmHg 89%
    16:00 +6°C° 0 mm 1 m/S 688 mmHg 89%
    17:00 +4°C° 0 mm 2 m/S 688 mmHg 86%
    18:00 +3°C° 0 mm 2 m/S 688 mmHg 83%
    19:00 +2°C° 0 mm 2 m/S 688 mmHg 80%
    20:00 +2°C° 0 mm 2 m/S 688 mmHg 79%
    21:00 +1°C° 0 mm 2 m/S 688 mmHg 78%
    22:00 +1°C° 0 mm 2 m/S 688 mmHg 76%
    23:00 +1°C° 0 mm 2 m/S 688 mmHg 75%

    25 Januar, Donnerstag

    Zeit Temperatur Niederschläge Wind Luftdruck Luftfeuchtigkeit
    00:00 +1°C° 0 mm 2 m/S 688 mmHg 74%
    01:00 +1°C° 0 mm 2 m/S 687 mmHg 73%
    02:00 +1°C° 0 mm 2 m/S 687 mmHg 73%
    03:00 +1°C° 0 mm 2 m/S 687 mmHg 73%
    04:00 +1°C° 0 mm 2 m/S 687 mmHg 73%
    05:00 +1°C° 0 mm 2 m/S 686 mmHg 73%
    06:00 +1°C° 0 mm 2 m/S 686 mmHg 74%
    07:00 +1°C° 0 mm 2 m/S 686 mmHg 74%
    08:00 +2°C° 0 mm 2 m/S 686 mmHg 75%
    09:00 +3°C° 0 mm 2 m/S 685 mmHg 76%
    10:00 +4°C° 0 mm 2 m/S 685 mmHg 78%
    11:00 +4°C° 0 mm 2 m/S 685 mmHg 80%
    12:00 +5°C° 0 mm 2 m/S 684 mmHg 83%
    13:00 +6°C° 0 mm 2 m/S 684 mmHg 85%
    14:00 +6°C° 0 mm 2 m/S 684 mmHg 86%
    15:00 +5°C° 0 mm 2 m/S 683 mmHg 88%
    16:00 +5°C° 0 mm 2 m/S 683 mmHg 89%
    17:00 +4°C° 0 mm 2 m/S 683 mmHg 88%
    18:00 +3°C° 0 mm 2 m/S 683 mmHg 86%
    19:00 +2°C° 0 mm 2 m/S 683 mmHg 85%
    20:00 +2°C° 0 mm 2 m/S 683 mmHg 85%
    21:00 +2°C° 0 mm 2 m/S 683 mmHg 84%
    22:00 +2°C° 0 mm 2 m/S 683 mmHg 84%
    23:00 +2°C° 0 mm 2 m/S 683 mmHg 85%

    26 Januar, Freitag

    Zeit Temperatur Niederschläge Wind Luftdruck Luftfeuchtigkeit
    00:00 +1°C° 0 mm 2 m/S 683 mmHg 86%
    01:00 +2°C° 0 mm 1 m/S 683 mmHg 87%
    02:00 +2°C° 0 mm 1 m/S 682 mmHg 89%
    03:00 +1°C° 0 mm 1 m/S 682 mmHg 91%
    04:00 +1°C° 0 mm 1 m/S 682 mmHg 92%
    05:00 +1°C° 0,1 mm 1 m/S 682 mmHg 93%
    06:00 +1°C° 0,1 mm 1 m/S 682 mmHg 94%
    07:00 +1°C° 0,1 mm 1 m/S 682 mmHg 94%
    08:00 +1°C° 0,3 mm 1 m/S 682 mmHg 95%
    09:00 +2°C° 0,3 mm 1 m/S 682 mmHg 95%
    10:00 +3°C° 0,3 mm 1 m/S 683 mmHg 95%
    11:00 +3°C° 0,8 mm 1 m/S 683 mmHg 96%
    12:00 +2°C° 0,8 mm 2 m/S 683 mmHg 96%
    13:00 +2°C° 0,8 mm 2 m/S 683 mmHg 97%
    14:00 +2°C° 1,4 mm 2 m/S 683 mmHg 97%
    15:00 +2°C° 1,4 mm 2 m/S 683 mmHg 97%
    16:00 +1°C° 1,4 mm 2 m/S 684 mmHg 97%
    17:00 +2°C° 1,2 mm 1 m/S 684 mmHg 97%
    18:00 +2°C° 1,2 mm 1 m/S 684 mmHg 97%
    19:00 +1°C° 1,2 mm 1 m/S 685 mmHg 97%
    20:00 +1°C° 1,2 mm 1 m/S 685 mmHg 97%
    21:00 +1°C° 1,2 mm 1 m/S 686 mmHg 97%
    22:00 +1°C° 1,2 mm 1 m/S 686 mmHg 97%
    23:00 +1°C° 0,7 mm 1 m/S 687 mmHg 97%

    27 Januar, Samstag

    Zeit Temperatur Niederschläge Wind Luftdruck Luftfeuchtigkeit
    00:00 0°C° 0,7 mm 1 m/S 687 mmHg 97%
    01:00 0°C° 0,7 mm 1 m/S 687 mmHg 97%
    02:00 0°C° 0,8 mm 1 m/S 688 mmHg 98%
    03:00 0°C° 0,8 mm 1 m/S 688 mmHg 98%
    04:00 0°C° 0,8 mm 1 m/S 688 mmHg 98%
    05:00 0°C° 0,7 mm 1 m/S 688 mmHg 98%
    06:00 0°C° 0,7 mm 1 m/S 689 mmHg 98%
    07:00 0°C° 0,7 mm 1 m/S 689 mmHg 98%
    08:00 0°C° 0,3 mm 1 m/S 690 mmHg 98%
    09:00 0°C° 0,3 mm 1 m/S 691 mmHg 97%
    10:00 +1°C° 0,3 mm 1 m/S 691 mmHg 97%
    11:00 +1°C° 0,1 mm 1 m/S 691 mmHg 97%
    12:00 +2°C° 0,1 mm 1 m/S 692 mmHg 96%
    13:00 +2°C° 0,1 mm 1 m/S 692 mmHg 96%
    14:00 +2°C° 0,1 mm 1 m/S 692 mmHg 96%
    15:00 +2°C° 0,1 mm 1 m/S 692 mmHg 96%
    16:00 +2°C° 0,1 mm 1 m/S 693 mmHg 96%
    17:00 +1°C° 0 mm 1 m/S 693 mmHg 96%
    18:00 +1°C° 0 mm 1 m/S 694 mmHg 96%
    19:00 0°C° 0 mm 1 m/S 694 mmHg 96%
    20:00 0°C° 0 mm 1 m/S 694 mmHg 95%
    21:00 0°C° 0 mm 1 m/S 695 mmHg 95%
    22:00 0°C° 0 mm 1 m/S 695 mmHg 95%
    23:00 -1°C° 0 mm 1 m/S 695 mmHg 94%
    Mehr zeigen